• MPC Preparation (Info)

  • MPEC 2016-O20 : 2014 OZ393

    The following Minor Planet Electronic Circular may be linked-to from your own Web pages, but must not otherwise be redistributed electronically.

    A form allowing access to any MPEC is at the bottom of this page.


    Read MPEC 2016-O19 Read MPEC 2016-O21


    M.P.E.C. 2016-O20                                Issued 2016 July 16, 03:27 UT
    
         The Minor Planet Electronic Circulars contain information on unusual
             minor planets and routine data on comets.  They are published
        on behalf of Division F of the International Astronomical Union by the
              Minor Planet Center, Smithsonian Astrophysical Observatory,
                              Cambridge, MA 02138, U.S.A.
    
                 Prepared using the Tamkin Foundation Computer Network
    
                                  MPC@CFA.HARVARD.EDU
                URL https://www.minorplanetcenter.net/    ISSN 1523-6714
    
                                      2014 OZ393
    
    Observations:
         K14Od3Z  C2010 10 08.40659 02 53 21.423+12 33 19.67         21.9 wLEO020F51
         K14Od3Z  C2010 10 08.42479 02 53 21.342+12 33 19.27         21.8 wLEO020F51
         K14Od3Z  C2010 10 08.44301 02 53 21.256+12 33 18.94         21.9 wLEO020F51
         K14Od3Z  C2010 10 08.46214 02 53 21.174+12 33 18.27         21.9 wLEO020F51
         K14Od3Z  C2012 10 18.39491 03 06 46.328+12 29 39.54         22.1 wLEO020F51
         K14Od3Z  C2012 10 18.41004 03 06 46.258+12 29 39.20         22.0 wLEO020F51
         K14Od3Z  C2012 10 18.42521 03 06 46.192+12 29 38.63         22.0 wLEO020F51
         K14Od3Z  C2012 10 18.44048 03 06 46.118+12 29 38.22         22.0 wLEO020F51
         K14Od3Z  C2012 12 07.24173 03 02 36.781+12 08 30.94         22.1 wLEO020F51
         K14Od3Z  C2012 12 07.25676 03 02 36.712+12 08 30.49         22.0 wLEO020F51
         K14Od3Z  C2012 12 07.27177 03 02 36.621+12 08 30.35         22.2 wLEO020F51
         K14Od3Z  C2012 12 07.28681 03 02 36.554+12 08 29.89         22.3 wLEO020F51
         K14Od3Z* C2014 07 31.61362 03 22 33.042+12 50 59.10         22.0 wLEO020F51
         K14Od3Z  C2014 07 31.61428 03 22 33.031+12 50 59.18         22.3 wLEO020F51
         K14Od3Z  C2014 07 31.61493 03 22 33.046+12 50 59.01         22.4 wLEO020F51
         K14Od3Z  C2014 07 31.61560 03 22 33.042+12 50 59.29         22.3 wLEO020F51
         K14Od3Z  C2014 08 31.54833 03 23 06.452+12 46 00.98         22.2 wLEO020F51
         K14Od3Z  C2014 08 31.56130 03 23 06.430+12 46 00.82         22.3 wLEO020F51
         K14Od3Z  C2014 08 31.57423 03 23 06.423+12 46 00.65         22.4 wLEO020F51
         K14Od3Z  C2014 08 31.58721 03 23 06.414+12 46 00.32         22.2 wLEO020F51
         K14Od3Z  C2014 11 20.47177 03 18 09.857+12 13 56.23         22.1 wLEO020F51
         K14Od3Z  C2014 11 20.48306 03 18 09.795+12 13 56.10         22.3 wLEO020F51
         K14Od3Z  C2014 11 20.49427 03 18 09.733+12 13 55.87         22.4 wLEO020F51
         K14Od3Z  C2014 11 20.50548 03 18 09.681+12 13 55.50         22.1 wLEO020F51
         K14Od3Z  C2014 11 26.29876 03 17 39.724+12 11 40.93         22.3 wLEO020F51
         K14Od3Z  C2014 11 26.30999 03 17 39.686+12 11 40.83         22.2 wLEO020F51
         K14Od3Z  C2014 11 26.32119 03 17 39.624+12 11 40.78         21.9 wLEO020F51
         K14Od3Z  C2015 01 15.32401 03 14 33.385+12 00 34.60         22.4 wLEO020F51
         K14Od3Z  C2015 01 15.33571 03 14 33.367+12 00 34.69         22.4 wLEO020F51
         K14Od3Z  C2015 01 15.34741 03 14 33.347+12 00 34.70         22.2 wLEO020F51
         K14Od3Z  C2015 01 15.35914 03 14 33.327+12 00 34.62         22.1 wLEO020F51
         K14Od3Z  C2015 01 17.29602 03 14 30.222+12 00 30.95         21.9 wLEO020F51
         K14Od3Z  C2015 01 17.30978 03 14 30.207+12 00 30.92         22.1 wLEO020F51
         K14Od3Z  C2015 01 17.32359 03 14 30.192+12 00 30.83         22.1 wLEO020F51
         K14Od3Z  C2015 01 17.33743 03 14 30.171+12 00 30.91         22.1 wLEO020F51
         K14Od3Z  C2015 07 24.59679 03 28 59.765+12 49 13.67         22.3 wLEO020F51
         K14Od3Z  C2015 07 24.60133 03 28 59.804+12 49 13.57         22.0 wLEO020F51
         K14Od3Z  C2015 07 24.60594 03 28 59.805+12 49 13.57         22.2 wLEO020F51
         K14Od3Z  C2015 07 24.61052 03 28 59.831+12 49 13.60         22.1 wLEO020F51
    
    Observer details:
    F51 Pan-STARRS 1, Haleakala.  Observers B. Gibson, T. Goggia, N. Primak,
        A. Schultz, M. Willman.  Measurers K. Chambers, S. Chastel, Y.-T. Chen,
        L. Denneau, H. Flewelling, M. Holman, M. Huber, R. Jedicke, M. Lackner,
        E. Lilly, H.-W. Lin, E. Magnier, M. Micheli, M. Payne, P. Veres,
        R. Wainscoat, C. Waters, R. Weryk.  1.8-m Ritchey-Chretien + CCD.
    
    Orbital elements:
    2014 OZ393
    Epoch 2016 July 31.0 TT = JDT 2457600.5                 MPC
    M  12.54557              (2000.0)            P               Q
    n   0.00315179     Peri.  184.54966     +0.81238850     -0.56365906
    a  46.0713673      Node   211.29106     +0.54366409     +0.82477527
    e   0.1827850      Incl.   16.71448     +0.21084183     +0.04510227
    P 313              H    6.1           G   0.15           U   2
    Residuals in seconds of arc
    101008 F51  0.1+  0.1-    140731 F51  0.2-  0.1+    141126 F51  0.1-  0.0
    101008 F51  0.1+  0.1-    140731 F51  0.0   0.1-    150115 F51  0.0   0.1-
    101008 F51  0.0   0.1+    140731 F51  0.1-  0.2+    150115 F51  0.1+  0.0
    101008 F51  0.0   0.0     140831 F51  0.3+  0.0     150115 F51  0.1+  0.0
    121018 F51  0.1-  0.1+    140831 F51  0.1+  0.0     150115 F51  0.1+  0.0
    121018 F51  0.0   0.2+    140831 F51  0.1+  0.1+    150117 F51  0.1-  0.1+
    121018 F51  0.0   0.0     140831 F51  0.1+  0.1-    150117 F51  0.0   0.1+
    121018 F51  0.0   0.0     141120 F51  0.1+  0.2-    150117 F51  0.1+  0.0
    121207 F51  0.1+  0.0     141120 F51  0.1+  0.0     150117 F51  0.1+  0.1+
    121207 F51  0.1+  0.1-    141120 F51  0.0   0.0     150724 F51  0.3-  0.1+
    121207 F51  0.2-  0.1+    141120 F51  0.1+  0.1-    150724 F51  0.1+  0.0
    121207 F51  0.2-  0.1-    141126 F51  0.3-  0.4-    150724 F51  0.1-  0.0
    140731 F51  0.0   0.0     141126 F51  0.0   0.2-    150724 F51  0.0   0.1+
    
    Ephemeris:
    2014 OZ393               a,e,i = 46.07, 0.18, 17                 q = 37.650
    Date    TT    R. A. (2000) Decl.     Delta      r     Elong.  Phase     V
    2016 06 16    03 32 32.8 +12 42 35  38.8032 37.9424    31.7     0.8    22.1
    ...
    2016 07 01    03 34 01.3 +12 45 15  38.6515 37.9446    45.4     1.1    22.1
    ...
    2016 07 09    03 34 42.7 +12 46 07  38.5519 37.9458    52.8     1.2    22.1
    ...
    2016 07 15    03 35 10.6 +12 46 29  38.4701 37.9467    58.4     1.3    22.1
    2016 07 16    03 35 15.0 +12 46 32  38.4559 37.9468    59.3     1.3    22.1
    2016 07 17    03 35 19.3 +12 46 33  38.4416 37.9470    60.2     1.3    22.1
    ...
    2016 07 23    03 35 43.2 +12 46 37  38.3530 37.9479    65.8     1.4    22.1
    ...
    2016 07 31    03 36 10.1 +12 46 18  38.2285 37.9491    73.3     1.5    22.1
    ...
    2016 08 15    03 36 43.8 +12 44 35  37.9829 37.9513    87.4     1.5    22.1
    
    A. U. Tomatic                (C) Copyright 2016 MPC           M.P.E.C. 2016-O20
    

    Read MPEC 2016-O19 Read MPEC 2016-O21


    MPEC number:

    Enter an MPEC number in one of the following forms:

    • 1997-B01 (the full form)
    • J97B01 (the packed version of the full form)
    • B01 (the abbreviated form)